RAVAN

Last updated on Thu Mar 05 2026 00:04:02 GMT+0000 (Coordinated Universal Time)

1 41849U 16067B 26063.20616988 .00059799 00000+0 12348-2 0 9991 2 41849 98.0054 301.3560 0006900 23.8187 336.3378 15.45624462511432
UTC large
Height (km)
Speed (km/s)
/
Latitude / Longitude
Inclination (degrees)
Orbital Period (minutes)
Azimuth
Elevation
Range (km)
Doppler Factor

Next 0 passes for location: London (51.5072 / 0.1276)

Sorry there are no passes over London.